Weather History for Greenville, AL

Change the Weather History Date:

Thursday, August 29, 2013

  Actual Average Record
Temperature  
Mean Temperature 78 °F -  
Max Temperature 90 °F 90 °F 102 °F (1951)
Min Temperature 66 °F 67 °F 50 °F (1992)
Cooling Degree Days 13    
Growing Degree Days 28 (Base 50)    
Moisture  
Dew Point 68 °F    
Average Humidity 72    
Maximum Humidity 93    
Minimum Humidity 50    
Precipitation  
Precipitation 0.00 in - - ()
Sea Level Pressure  
Sea Level Pressure 30.02 in    
Wind  
Wind Speed 2 mph (WNW)    
Max Wind Speed 8 mph    
Max Gust Speed -    
Visibility 10 miles    
Events Hail    
Averages and records for this station are not official NWS values.
T = Trace of Precipitation, MM = Missing Value Source: NWS Daily Summary

Daily Weather History Graph

Daily Weather History Graph

Search for Another Location

Airport:

Trip Planner

Search our weather history database for the weather conditions in past years. The results will help you decide how hot, cold, wet, or windy it might be!

Date:

Astronomy

Aug. 29, 2013 Rise Set
Actual Time 6:20 AM CDT 7:13 PM CDT
Civil Twilight 5:55 AM CDT 7:38 PM CDT
Nautical Twilight 5:25 AM CDT 8:08 PM CDT
Astronomical Twilight 4:55 AM CDT 8:38 PM CDT
Moon 12:21 AM CDT (8/29) 2:31 PM CDT (8/29)
Length of Visible Light 13h 43m
Length of Day
12h 53m
Last Quarter, 38% of the Moon is Illuminated
Aug 29
Last Quarter
Sep 5
New
Sep 12
First Quarter
Sep 19
Full
Sep 26
Last Quarter

Hourly Weather History & Observations

Time (CDT) Temp. Heat Index Dew Point Humidity Pressure Visibility Wind Dir Wind Speed Gust Speed Precip Events Conditions
12:56 AM 70.0 °F - 66.0 °F 87% 30.04 in 10.0 mi Calm Calm - N/A   Clear
1:56 AM 69.1 °F - 64.9 °F 87% 30.03 in 10.0 mi Calm Calm - N/A   Clear
2:56 AM 66.9 °F - 64.9 °F 93% 30.02 in 10.0 mi Calm Calm - N/A   Clear
3:56 AM 66.9 °F - 64.0 °F 90% 30.01 in 10.0 mi Calm Calm - N/A   Partly Cloudy
4:56 AM 66.9 °F - 64.0 °F 90% 30.02 in 10.0 mi Calm Calm - N/A   Clear
5:45 AM - - - N/A% - - North - - N/A Hail Hail
5:56 AM 66.9 °F - 64.0 °F 90% 30.04 in 10.0 mi Calm Calm - N/A   Clear
6:56 AM 68.0 °F - 64.0 °F 87% 30.06 in 10.0 mi Calm Calm - N/A   Clear
7:56 AM 75.0 °F - 66.9 °F 76% 30.07 in 10.0 mi Calm Calm - N/A   Clear
8:56 AM 79.0 °F - 68.0 °F 69% 30.07 in 10.0 mi NW 5.8 mph - N/A   Partly Cloudy
9:56 AM 82.9 °F 86.5 °F 69.1 °F 63% 30.07 in 10.0 mi WNW 6.9 mph - N/A   Clear
10:56 AM 86.0 °F 90.1 °F 69.1 °F 57% 30.06 in 10.0 mi WNW 8.1 mph - N/A   Clear
11:56 AM 88.0 °F 92.9 °F 70.0 °F 55% 30.05 in 10.0 mi West 6.9 mph - N/A   Clear
12:56 PM 89.1 °F 93.7 °F 69.1 °F 52% 30.03 in 10.0 mi Variable 3.5 mph - N/A   Clear
1:56 PM 90.0 °F 94.5 °F 69.1 °F 50% 30.01 in 10.0 mi NW 3.5 mph - N/A   Scattered Clouds
2:56 PM 90.0 °F 95.4 °F 70.0 °F 52% 29.99 in 10.0 mi West 3.5 mph - N/A   Scattered Clouds
3:56 PM 90.0 °F 94.5 °F 69.1 °F 50% 29.98 in 10.0 mi West 4.6 mph - N/A   Partly Cloudy
4:56 PM 90.0 °F 95.4 °F 70.0 °F 52% 29.98 in 10.0 mi NNW 5.8 mph - N/A   Scattered Clouds
5:56 PM 87.1 °F 92.8 °F 71.1 °F 59% 29.97 in 10.0 mi Variable 4.6 mph - N/A   Scattered Clouds
6:56 PM 84.0 °F 89.0 °F 71.1 °F 65% 29.98 in 10.0 mi WNW 6.9 mph - N/A   Clear
7:56 PM 81.0 °F 85.2 °F 72.0 °F 74% 29.98 in 10.0 mi West 3.5 mph - N/A   Clear
8:56 PM 80.1 °F 83.8 °F 72.0 °F 76% 29.99 in 10.0 mi WNW 4.6 mph - N/A   Clear
9:56 PM 79.0 °F - 72.0 °F 79% 29.98 in 10.0 mi WNW 3.5 mph - N/A   Clear
10:56 PM 75.9 °F - 71.1 °F 85% 29.98 in 9.0 mi Calm Calm - N/A   Clear
11:56 PM 73.9 °F - 71.1 °F 91% 29.98 in 8.0 mi Calm Calm - N/A   Clear